Year,Month,Day,Hour,Minute,Value (Times are PST for temperature in C)
2015,10,01,00,01,11.10
2015,10,01,00,02,11.10
2015,10,01,00,03,11.10
2015,10,01,00,04,11.10
2015,10,01,00,06,10.90
2015,10,01,00,07,10.90
2015,10,01,00,09,10.90
2015,10,01,00,11,10.80
2015,10,01,00,12,10.80
2015,10,01,00,13,10.80
2015,10,01,00,14,10.80
2015,10,01,00,16,10.70
2015,10,01,00,17,10.70
2015,10,01,00,18,10.60
2015,10,01,00,19,10.60
2015,10,01,00,21,10.60
2015,10,01,00,22,10.60
2015,10,01,00,23,10.60
2015,10,01,00,24,10.60
2015,10,01,00,26,10.60
2015,10,01,00,27,10.40
2015,10,01,00,28,10.40
2015,10,01,00,29,10.40
2015,10,01,00,31,10.40
2015,10,01,00,32,10.40
2015,10,01,00,33,10.40
2015,10,01,00,34,10.40
2015,10,01,00,36,10.60
2015,10,01,00,37,10.60
2015,10,01,00,38,10.60
2015,10,01,00,39,10.60
2015,10,01,00,41,10.60
2015,10,01,00,42,10.60
2015,10,01,00,43,10.70
2015,10,01,00,44,10.70
2015,10,01,00,45,10.70
2015,10,01,00,46,10.70
2015,10,01,00,47,10.70
2015,10,01,00,48,10.80
2015,10,01,00,49,10.80
2015,10,01,00,50,10.80
2015,10,01,00,51,10.80
2015,10,01,00,52,10.90
2015,10,01,00,53,10.90
2015,10,01,00,54,10.90
2015,10,01,00,55,10.90
2015,10,01,00,56,10.90
2015,10,01,00,57,10.90
2015,10,01,00,58,10.90
2015,10,01,00,59,10.90
2015,10,01,01,00,10.90
2015,10,01,01,01,10.90
2015,10,01,01,02,11.10
2015,10,01,01,03,11.10
2015,10,01,01,04,11.10
2015,10,01,01,05,11.10
2015,10,01,01,06,11.10
2015,10,01,01,07,11.10
2015,10,01,01,08,11.10
2015,10,01,01,09,11.10
2015,10,01,01,10,11.10
2015,10,01,01,11,11.10
2015,10,01,01,12,11.10
2015,10,01,01,13,11.10
2015,10,01,01,14,11.10
2015,10,01,01,15,11.10
2015,10,01,01,16,11.10
2015,10,01,01,17,11.10
2015,10,01,01,18,11.10
2015,10,01,01,19,11.10
2015,10,01,01,20,11.10
2015,10,01,01,21,11.20
2015,10,01,01,22,11.20
2015,10,01,01,23,11.20
2015,10,01,01,24,11.20
2015,10,01,01,25,11.20
2015,10,01,01,26,11.20
2015,10,01,01,27,11.20
2015,10,01,01,28,11.20
2015,10,01,01,29,11.20
2015,10,01,01,30,11.20
2015,10,01,01,31,11.20
2015,10,01,01,33,11.20
2015,10,01,01,34,11.20
2015,10,01,01,36,11.20
2015,10,01,01,37,11.20
2015,10,01,01,38,11.20
2015,10,01,01,39,11.20
2015,10,01,01,41,11.20
2015,10,01,01,42,11.20
2015,10,01,01,43,11.20
2015,10,01,01,44,11.20
2015,10,01,01,46,11.20
2015,10,01,01,47,11.20
2015,10,01,01,48,11.20
2015,10,01,01,49,11.20
2015,10,01,01,51,11.20
2015,10,01,01,52,11.20
2015,10,01,01,53,11.20
2015,10,01,01,54,11.20
2015,10,01,01,56,11.20
2015,10,01,01,57,11.20
2015,10,01,01,58,11.20
2015,10,01,01,59,11.20
2015,10,01,02,01,11.20
2015,10,01,02,02,11.20
2015,10,01,02,03,11.20
2015,10,01,02,04,11.20
2015,10,01,02,06,11.10
2015,10,01,02,07,11.10
2015,10,01,02,08,11.20
2015,10,01,02,09,11.10
2015,10,01,02,11,11.10
2015,10,01,02,12,11.10
2015,10,01,02,13,11.10
2015,10,01,02,14,11.10
2015,10,01,02,16,11.10
2015,10,01,02,17,11.10
2015,10,01,02,18,11.10
2015,10,01,02,19,11.10
2015,10,01,02,21,11.10
2015,10,01,02,22,11.10
2015,10,01,02,23,11.10
2015,10,01,02,24,11.10
2015,10,01,02,26,11.10
2015,10,01,02,27,11.10
2015,10,01,02,28,11.10
2015,10,01,02,29,11.10
2015,10,01,02,31,11.10
2015,10,01,02,32,11.10
2015,10,01,02,33,10.90
2015,10,01,02,34,10.90
2015,10,01,02,36,10.90
2015,10,01,02,37,10.90
2015,10,01,02,38,10.90
2015,10,01,02,39,10.80
2015,10,01,02,41,10.70
2015,10,01,02,42,10.60
2015,10,01,02,43,10.60
2015,10,01,02,44,10.60
2015,10,01,02,46,10.40
2015,10,01,02,47,10.40
2015,10,01,02,48,10.40
2015,10,01,02,49,10.40
2015,10,01,02,51,10.40
2015,10,01,02,52,10.30
2015,10,01,02,53,10.30
2015,10,01,02,54,10.30
2015,10,01,02,56,10.30
2015,10,01,02,57,10.20
2015,10,01,02,58,10.20
2015,10,01,02,59,10.20
2015,10,01,03,01,10.10
2015,10,01,03,02,10.10
2015,10,01,03,03,10.10
2015,10,01,03,04,10.10
2015,10,01,03,06,10.10
2015,10,01,03,07,10.10
2015,10,01,03,08,9.90
2015,10,01,03,09,9.90
2015,10,01,03,11,9.90
2015,10,01,03,12,9.90
2015,10,01,03,13,9.90
2015,10,01,03,14,9.90
2015,10,01,03,16,9.90
2015,10,01,03,17,9.90
2015,10,01,03,18,10.10
2015,10,01,03,19,10.10
2015,10,01,03,21,10.10
2015,10,01,03,22,10.10
2015,10,01,03,23,10.10
2015,10,01,03,24,9.90
2015,10,01,03,26,9.90
2015,10,01,03,27,9.90
2015,10,01,03,28,9.90
2015,10,01,03,29,9.90
2015,10,01,03,31,9.90
2015,10,01,03,32,9.90
2015,10,01,03,33,9.80
2015,10,01,03,34,9.80
2015,10,01,03,35,9.80
2015,10,01,03,36,9.80
2015,10,01,03,37,9.80
2015,10,01,03,38,9.80
2015,10,01,03,39,9.80
2015,10,01,03,40,9.70
2015,10,01,03,41,9.70
2015,10,01,03,42,9.70
2015,10,01,03,43,9.70
2015,10,01,03,44,9.70
2015,10,01,03,45,9.70
2015,10,01,03,46,9.70
2015,10,01,03,47,9.70
2015,10,01,03,48,9.70
2015,10,01,03,49,9.70
2015,10,01,03,50,9.70
2015,10,01,03,51,9.70
2015,10,01,03,52,9.70
2015,10,01,03,53,9.80
2015,10,01,03,54,9.80
2015,10,01,03,55,9.80
2015,10,01,03,56,9.80
2015,10,01,03,57,9.80
2015,10,01,03,58,9.80
2015,10,01,03,59,9.80
2015,10,01,04,00,9.80
2015,10,01,04,01,9.80
2015,10,01,04,02,9.80
2015,10,01,04,03,9.80
2015,10,01,04,04,9.80
2015,10,01,04,05,9.90
2015,10,01,04,06,9.90
2015,10,01,04,07,9.90
2015,10,01,04,08,9.90
2015,10,01,04,09,9.90
2015,10,01,04,10,9.90
2015,10,01,04,11,9.90
2015,10,01,04,12,9.90
2015,10,01,04,13,9.90
2015,10,01,04,14,9.80
2015,10,01,04,15,9.80
2015,10,01,04,16,9.80
2015,10,01,04,18,9.70
2015,10,01,04,19,9.70
2015,10,01,04,21,9.70
2015,10,01,04,22,9.70
2015,10,01,04,23,9.70
2015,10,01,04,24,9.70
2015,10,01,04,26,9.70
2015,10,01,04,27,9.70
2015,10,01,04,28,9.70
2015,10,01,04,29,9.70
2015,10,01,04,31,9.70
2015,10,01,04,32,9.70
2015,10,01,04,33,9.70
2015,10,01,04,34,9.70
2015,10,01,04,36,9.70
2015,10,01,04,37,9.70
2015,10,01,04,38,9.70
2015,10,01,04,39,9.70
2015,10,01,04,41,9.60
2015,10,01,04,42,9.60
2015,10,01,04,43,9.60
2015,10,01,04,44,9.60
2015,10,01,04,46,9.60
2015,10,01,04,47,9.60
2015,10,01,04,48,9.50
2015,10,01,04,49,9.50
2015,10,01,04,51,9.50
2015,10,01,04,52,9.50
2015,10,01,04,53,9.50
2015,10,01,04,54,9.50
2015,10,01,04,56,9.50
2015,10,01,04,57,9.40
2015,10,01,04,58,9.40
2015,10,01,04,59,9.40
2015,10,01,05,01,9.40
2015,10,01,05,02,9.50
2015,10,01,05,03,9.50
2015,10,01,05,04,9.50
2015,10,01,05,06,9.40
2015,10,01,05,07,9.40
2015,10,01,05,08,9.40
2015,10,01,05,09,9.40
2015,10,01,05,11,9.40
2015,10,01,05,12,9.40
2015,10,01,05,13,9.40
2015,10,01,05,14,9.40
2015,10,01,05,16,9.30
2015,10,01,05,17,9.30
2015,10,01,05,18,9.30
2015,10,01,05,19,9.30
2015,10,01,05,21,9.30
2015,10,01,05,22,9.30
2015,10,01,05,23,9.30
2015,10,01,05,24,9.30
2015,10,01,05,26,9.30
2015,10,01,05,27,9.40
2015,10,01,05,28,9.40
2015,10,01,05,29,9.40
2015,10,01,05,31,9.50
2015,10,01,05,32,9.50
2015,10,01,05,33,9.50
2015,10,01,05,34,9.60
2015,10,01,05,36,9.60
2015,10,01,05,37,9.70
2015,10,01,05,38,9.70
2015,10,01,05,39,9.70
2015,10,01,05,41,9.70
2015,10,01,05,42,9.70
2015,10,01,05,43,9.70
2015,10,01,05,44,9.70
2015,10,01,05,46,9.70
2015,10,01,05,47,9.70
2015,10,01,05,48,9.70
2015,10,01,05,49,9.70
2015,10,01,05,51,9.70
2015,10,01,05,52,9.60
2015,10,01,05,53,9.60
2015,10,01,05,54,9.60
2015,10,01,05,56,9.60
2015,10,01,05,57,9.50
2015,10,01,05,58,9.50
2015,10,01,05,59,9.50
2015,10,01,06,01,9.50
2015,10,01,06,02,9.50
2015,10,01,06,03,9.50
2015,10,01,06,04,9.50
2015,10,01,06,06,9.50
2015,10,01,06,07,9.50
2015,10,01,06,08,9.50
2015,10,01,06,09,9.50
2015,10,01,06,11,9.60
2015,10,01,06,12,9.60
2015,10,01,06,13,9.60
2015,10,01,06,14,9.60
2015,10,01,06,15,9.60
2015,10,01,06,16,9.60
2015,10,01,06,17,9.60
2015,10,01,06,18,9.60
2015,10,01,06,19,9.60
2015,10,01,06,21,9.60
2015,10,01,06,22,9.60
2015,10,01,06,23,9.60
2015,10,01,06,24,9.60
2015,10,01,06,26,9.60
2015,10,01,06,27,9.70
2015,10,01,06,28,9.70
2015,10,01,06,29,9.70
2015,10,01,06,30,9.70
2015,10,01,06,31,9.70
2015,10,01,06,32,9.70
2015,10,01,06,33,9.70
2015,10,01,06,34,9.70
2015,10,01,06,35,9.70
2015,10,01,06,36,9.70
2015,10,01,06,37,9.70
2015,10,01,06,38,9.70
2015,10,01,06,39,9.70
2015,10,01,06,40,9.60
2015,10,01,06,41,9.60
2015,10,01,06,42,9.60
2015,10,01,06,43,9.70
2015,10,01,06,44,9.70
2015,10,01,06,45,9.70
2015,10,01,06,46,9.70
2015,10,01,06,47,9.70
2015,10,01,06,48,9.70
2015,10,01,06,49,9.70
2015,10,01,06,50,9.70
2015,10,01,06,51,9.80
2015,10,01,06,52,9.80
2015,10,01,06,53,9.80
2015,10,01,06,54,9.80
2015,10,01,06,55,9.90
2015,10,01,06,56,9.90
2015,10,01,06,57,9.90
2015,10,01,06,58,9.90
2015,10,01,06,59,9.90
2015,10,01,07,00,10.10
2015,10,01,07,01,10.10
2015,10,01,07,02,10.10
2015,10,01,07,03,10.10
2015,10,01,07,04,10.10
2015,10,01,07,05,10.10
2015,10,01,07,06,10.10
2015,10,01,07,07,10.10
2015,10,01,07,09,10.10
2015,10,01,07,11,10.10
2015,10,01,07,12,9.90
2015,10,01,07,13,9.90
2015,10,01,07,14,9.90
2015,10,01,07,16,9.90
2015,10,01,07,17,9.90
2015,10,01,07,18,9.90
2015,10,01,07,19,9.90
2015,10,01,07,21,9.90
2015,10,01,07,22,9.90
2015,10,01,07,23,9.90
2015,10,01,07,24,9.90
2015,10,01,07,26,9.90
2015,10,01,07,27,9.90
2015,10,01,07,28,9.90
2015,10,01,07,29,9.90
2015,10,01,07,31,9.90
2015,10,01,07,32,9.90
2015,10,01,07,33,9.90
2015,10,01,07,34,9.90
2015,10,01,07,36,10.10
2015,10,01,07,37,10.10
2015,10,01,07,38,10.10
2015,10,01,07,39,10.10
2015,10,01,07,41,10.10
2015,10,01,07,42,10.20
2015,10,01,07,43,10.20
2015,10,01,07,44,10.20
2015,10,01,07,46,10.30
2015,10,01,07,47,10.30
2015,10,01,07,48,10.30
2015,10,01,07,49,10.30
2015,10,01,07,51,10.30
2015,10,01,07,52,10.30
2015,10,01,07,53,10.40
2015,10,01,07,54,10.40
2015,10,01,07,56,10.40
2015,10,01,07,57,10.40
2015,10,01,07,58,10.40
2015,10,01,07,59,10.60
2015,10,01,08,01,10.60
2015,10,01,08,02,10.60
2015,10,01,08,03,10.60
2015,10,01,08,04,10.60
2015,10,01,08,06,10.60
2015,10,01,08,07,10.60
2015,10,01,08,08,10.60
2015,10,01,08,09,10.60
2015,10,01,08,11,10.70
2015,10,01,08,12,10.70
2015,10,01,08,13,10.70
2015,10,01,08,14,10.70
2015,10,01,08,16,10.80
2015,10,01,08,17,10.80
2015,10,01,08,18,10.80
2015,10,01,08,19,10.80
2015,10,01,08,21,10.90
2015,10,01,08,22,10.90
2015,10,01,08,23,10.90
2015,10,01,08,24,10.90
2015,10,01,08,26,10.90
2015,10,01,08,27,10.90
2015,10,01,08,28,10.90
2015,10,01,08,29,10.90
2015,10,01,08,31,10.90
2015,10,01,08,32,10.90
2015,10,01,08,33,11.10
2015,10,01,08,34,11.10
2015,10,01,08,36,11.10
2015,10,01,08,37,10.90
2015,10,01,08,38,10.90
2015,10,01,08,39,10.90
2015,10,01,08,41,10.90
2015,10,01,08,42,10.90
2015,10,01,08,43,10.90
2015,10,01,08,44,10.90
2015,10,01,08,46,11.10
2015,10,01,08,47,11.10
2015,10,01,08,48,11.10
2015,10,01,08,49,11.10
2015,10,01,08,51,11.10
2015,10,01,08,52,11.10
2015,10,01,08,53,11.10
2015,10,01,08,54,11.10
2015,10,01,08,55,11.20
2015,10,01,08,56,11.20
2015,10,01,08,57,11.20
2015,10,01,08,58,11.20
2015,10,01,08,59,11.20
2015,10,01,09,00,11.20
2015,10,01,09,01,11.30
2015,10,01,09,02,11.30
2015,10,01,09,03,11.30
2015,10,01,09,04,11.30
2015,10,01,09,05,11.30
2015,10,01,09,06,11.30
2015,10,01,09,07,11.30
2015,10,01,09,08,11.30
2015,10,01,09,09,11.40
2015,10,01,09,10,11.40
2015,10,01,09,11,11.40
2015,10,01,09,12,11.40
2015,10,01,09,13,11.40
2015,10,01,09,14,11.40
2015,10,01,09,15,11.40
2015,10,01,09,16,11.40
2015,10,01,09,17,11.60
2015,10,01,09,18,11.60
2015,10,01,09,19,11.60
2015,10,01,09,20,11.60
2015,10,01,09,21,11.60
2015,10,01,09,22,11.60
2015,10,01,09,23,11.60
2015,10,01,09,24,11.60
2015,10,01,09,25,11.60
2015,10,01,09,26,11.60
2015,10,01,09,27,11.60
2015,10,01,09,28,11.60
2015,10,01,09,29,11.70
2015,10,01,09,30,11.70
2015,10,01,09,31,11.70
2015,10,01,09,32,11.70
2015,10,01,09,33,11.70
2015,10,01,09,34,11.70
2015,10,01,09,35,11.80
2015,10,01,09,36,11.80
2015,10,01,09,37,11.80
2015,10,01,09,38,11.80
2015,10,01,09,39,11.80
2015,10,01,09,40,11.80
2015,10,01,09,42,11.80
2015,10,01,09,43,11.90
2015,10,01,09,44,11.90
2015,10,01,09,46,11.90
2015,10,01,09,47,12.00
2015,10,01,09,49,12.00
2015,10,01,09,51,12.00
2015,10,01,09,52,12.00
2015,10,01,09,54,12.00
2015,10,01,09,56,12.10
2015,10,01,09,57,12.10
2015,10,01,09,58,12.10
2015,10,01,09,59,12.10
2015,10,01,10,01,12.20
2015,10,01,10,02,12.20
2015,10,01,10,03,12.30
2015,10,01,10,04,12.30
2015,10,01,10,06,12.30
2015,10,01,10,07,12.30
2015,10,01,10,08,12.30
2015,10,01,10,09,12.30
2015,10,01,10,11,12.30
2015,10,01,10,12,12.40
2015,10,01,10,13,12.40
2015,10,01,10,14,12.40
2015,10,01,10,16,12.50
2015,10,01,10,17,12.50
2015,10,01,10,18,12.60
2015,10,01,10,19,12.60
2015,10,01,10,21,12.60
2015,10,01,10,22,12.60
2015,10,01,10,23,12.70
2015,10,01,10,24,12.70
2015,10,01,10,26,12.70
2015,10,01,10,27,12.70
2015,10,01,10,28,12.70
2015,10,01,10,29,12.70
2015,10,01,10,31,12.60
2015,10,01,10,32,12.60
2015,10,01,10,33,12.60
2015,10,01,10,34,12.60
2015,10,01,10,36,12.70
2015,10,01,10,37,12.70
2015,10,01,10,38,12.70
2015,10,01,10,39,12.70
2015,10,01,10,41,12.70
2015,10,01,10,42,12.70
2015,10,01,10,43,12.70
2015,10,01,10,44,12.70
2015,10,01,10,46,12.80
2015,10,01,10,47,12.80
2015,10,01,10,48,12.80
2015,10,01,10,49,12.80
2015,10,01,10,51,12.90
2015,10,01,10,52,13.00
2015,10,01,10,53,13.00
2015,10,01,10,54,13.10
2015,10,01,10,56,13.10
2015,10,01,10,57,13.20
2015,10,01,10,58,13.20
2015,10,01,10,59,13.30
2015,10,01,11,01,13.30
2015,10,01,11,02,13.30
2015,10,01,11,03,13.30
2015,10,01,11,04,13.30
2015,10,01,11,06,13.30
2015,10,01,11,07,13.30
2015,10,01,11,08,13.30
2015,10,01,11,09,13.30
2015,10,01,11,11,13.30
2015,10,01,11,12,13.30
2015,10,01,11,13,13.30
2015,10,01,11,14,13.40
2015,10,01,11,16,13.50
2015,10,01,11,17,13.60
2015,10,01,11,18,13.60
2015,10,01,11,19,13.60
2015,10,01,11,21,13.60
2015,10,01,11,22,13.60
2015,10,01,11,23,13.50
2015,10,01,11,24,13.40
2015,10,01,11,26,13.30
2015,10,01,11,27,13.30
2015,10,01,11,28,13.30
2015,10,01,11,29,13.30
2015,10,01,11,31,13.30
2015,10,01,11,32,13.30
2015,10,01,11,33,13.30
2015,10,01,11,34,13.30
2015,10,01,11,35,13.30
2015,10,01,11,36,13.30
2015,10,01,11,37,13.30
2015,10,01,11,38,13.30
2015,10,01,11,39,13.40
2015,10,01,11,40,13.50
2015,10,01,11,41,13.60
2015,10,01,11,42,13.60
2015,10,01,11,43,13.70
2015,10,01,11,44,13.70
2015,10,01,11,45,13.70
2015,10,01,11,46,13.80
2015,10,01,11,47,13.90
2015,10,01,11,48,13.90
2015,10,01,11,49,14.00
2015,10,01,11,50,13.90
2015,10,01,11,51,13.90
2015,10,01,11,52,13.80
2015,10,01,11,53,13.80
2015,10,01,11,54,13.90
2015,10,01,11,55,13.90
2015,10,01,11,56,13.90
2015,10,01,11,57,13.90
2015,10,01,11,58,13.80
2015,10,01,11,59,13.80
2015,10,01,12,00,13.80
2015,10,01,12,02,13.80
2015,10,01,12,04,13.90
2015,10,01,12,06,13.90
2015,10,01,12,07,13.90
2015,10,01,12,08,13.90
2015,10,01,12,09,13.90
2015,10,01,12,11,14.00
2015,10,01,12,12,14.00
2015,10,01,12,13,14.00
2015,10,01,12,14,14.00
2015,10,01,12,16,14.10
2015,10,01,12,17,14.10
2015,10,01,12,18,14.10
2015,10,01,12,19,14.20
2015,10,01,12,21,14.20
2015,10,01,12,22,14.20
2015,10,01,12,23,14.30
2015,10,01,12,24,14.30
2015,10,01,12,26,14.40
2015,10,01,12,27,14.50
2015,10,01,12,28,14.50
2015,10,01,12,29,14.60
2015,10,01,12,31,14.60
2015,10,01,12,32,14.60
2015,10,01,12,33,14.70
2015,10,01,12,34,14.60
2015,10,01,12,36,14.60
2015,10,01,12,37,14.60
2015,10,01,12,38,14.60
2015,10,01,12,39,14.70
2015,10,01,12,41,14.80
2015,10,01,12,42,14.80
2015,10,01,12,43,14.80
2015,10,01,12,44,14.80
2015,10,01,12,46,14.80
2015,10,01,12,47,14.80
2015,10,01,12,48,14.80
2015,10,01,12,49,14.80
2015,10,01,12,51,14.90
2015,10,01,12,52,14.90
2015,10,01,12,53,14.90
2015,10,01,12,54,14.90
2015,10,01,12,56,15.00
2015,10,01,12,57,15.00
2015,10,01,12,58,15.00
2015,10,01,12,59,15.10
2015,10,01,13,01,15.20
2015,10,01,13,02,15.20
2015,10,01,13,03,15.30
2015,10,01,13,04,15.30
2015,10,01,13,06,15.30
2015,10,01,13,07,15.30
2015,10,01,13,08,15.30
2015,10,01,13,09,15.30
2015,10,01,13,11,15.40
2015,10,01,13,12,15.40
2015,10,01,13,13,15.40
2015,10,01,13,14,15.40
2015,10,01,13,16,15.40
2015,10,01,13,17,15.40
2015,10,01,13,18,15.40
2015,10,01,13,19,15.40
2015,10,01,13,20,15.50
2015,10,01,13,21,15.60
2015,10,01,13,22,15.60
2015,10,01,13,23,15.70
2015,10,01,13,24,15.80
2015,10,01,13,25,15.80
2015,10,01,13,26,15.80
2015,10,01,13,27,15.80
2015,10,01,13,28,15.80
2015,10,01,13,29,15.90
2015,10,01,13,30,15.90
2015,10,01,13,31,16.10
2015,10,01,13,32,16.10
2015,10,01,13,33,16.10
2015,10,01,13,34,16.10
2015,10,01,13,35,16.10
2015,10,01,13,36,16.10
2015,10,01,13,37,16.10
2015,10,01,13,38,16.10
2015,10,01,13,39,16.20
2015,10,01,13,40,16.30
2015,10,01,13,41,16.30
2015,10,01,13,42,16.30
2015,10,01,13,43,16.30
2015,10,01,13,44,16.30
2015,10,01,13,45,16.30
2015,10,01,13,46,16.40
2015,10,01,13,47,16.40
2015,10,01,13,49,16.40
2015,10,01,13,51,16.40
2015,10,01,13,52,16.40
2015,10,01,13,53,16.60
2015,10,01,13,54,16.70
2015,10,01,13,56,16.70
2015,10,01,13,57,16.70
2015,10,01,13,58,16.80
2015,10,01,13,59,16.90
2015,10,01,14,01,17.00
2015,10,01,14,02,17.10
2015,10,01,14,03,17.10
2015,10,01,14,04,17.10
2015,10,01,14,06,17.20
2015,10,01,14,07,17.20
2015,10,01,14,08,17.20
2015,10,01,14,09,17.20
2015,10,01,14,11,17.20
2015,10,01,14,12,17.20
2015,10,01,14,13,17.20
2015,10,01,14,14,17.20
2015,10,01,14,16,17.10
2015,10,01,14,17,17.10
2015,10,01,14,18,17.10
2015,10,01,14,19,17.10
2015,10,01,14,21,17.10
2015,10,01,14,22,17.20
2015,10,01,14,23,17.20
2015,10,01,14,24,17.20
2015,10,01,14,26,17.20
2015,10,01,14,27,17.20
2015,10,01,14,28,17.20
2015,10,01,14,29,17.10
2015,10,01,14,31,17.10
2015,10,01,14,32,17.10
2015,10,01,14,33,17.00
2015,10,01,14,34,16.90
2015,10,01,14,36,16.80
2015,10,01,14,37,16.80
2015,10,01,14,38,16.80
2015,10,01,14,39,16.70
2015,10,01,14,41,16.70
2015,10,01,14,42,16.70
2015,10,01,14,43,16.70
2015,10,01,14,44,16.60
2015,10,01,14,46,16.60
2015,10,01,14,47,16.60
2015,10,01,14,48,16.60
2015,10,01,14,49,16.70
2015,10,01,14,51,16.70
2015,10,01,14,52,16.70
2015,10,01,14,53,16.70
2015,10,01,14,54,16.70
2015,10,01,14,56,16.70
2015,10,01,14,57,16.70
2015,10,01,14,58,16.70
2015,10,01,14,59,16.70
2015,10,01,15,01,16.70
2015,10,01,15,02,16.70
2015,10,01,15,03,16.70
2015,10,01,15,04,16.70
2015,10,01,15,06,16.70
2015,10,01,15,07,16.70
2015,10,01,15,08,16.70
2015,10,01,15,09,16.80
2015,10,01,15,11,16.80
2015,10,01,15,12,16.90
2015,10,01,15,13,16.90
2015,10,01,15,14,16.90
2015,10,01,15,16,17.00
2015,10,01,15,17,17.10
2015,10,01,15,18,17.10
2015,10,01,15,19,17.10
2015,10,01,15,20,17.10
2015,10,01,15,21,17.10
2015,10,01,15,22,17.10
2015,10,01,15,23,17.10
2015,10,01,15,24,17.10
2015,10,01,15,25,17.10
2015,10,01,15,26,17.10
2015,10,01,15,27,17.10
2015,10,01,15,28,17.10
2015,10,01,15,29,17.10
2015,10,01,15,30,17.10
2015,10,01,15,31,17.10
2015,10,01,15,32,17.10
2015,10,01,15,33,17.20
2015,10,01,15,34,17.20
2015,10,01,15,35,17.20
2015,10,01,15,36,17.20
2015,10,01,15,37,17.30
2015,10,01,15,38,17.30
2015,10,01,15,39,17.30
2015,10,01,15,40,17.30
2015,10,01,15,41,17.30
2015,10,01,15,42,17.30
2015,10,01,15,43,17.30
2015,10,01,15,44,17.30
2015,10,01,15,45,17.30
2015,10,01,15,46,17.30
2015,10,01,15,47,17.30
2015,10,01,15,48,17.30
2015,10,01,15,49,17.30
2015,10,01,15,50,17.40
2015,10,01,15,51,17.40
2015,10,01,15,52,17.40
2015,10,01,15,53,17.40
2015,10,01,15,54,17.40
2015,10,01,15,56,17.50
2015,10,01,15,57,17.50
2015,10,01,15,58,17.50
2015,10,01,15,59,17.50
2015,10,01,16,01,17.40
2015,10,01,16,02,17.30
2015,10,01,16,03,17.30
2015,10,01,16,04,17.10
2015,10,01,16,06,16.80
2015,10,01,16,07,16.70
2015,10,01,16,08,16.70
2015,10,01,16,09,16.60
2015,10,01,16,11,16.40
2015,10,01,16,12,16.40
2015,10,01,16,13,16.40
2015,10,01,16,14,16.30
2015,10,01,16,16,16.30
2015,10,01,16,17,16.30
2015,10,01,16,18,16.30
2015,10,01,16,19,16.30
2015,10,01,16,21,16.20
2015,10,01,16,22,16.20
2015,10,01,16,23,16.20
2015,10,01,16,24,16.20
2015,10,01,16,26,16.10
2015,10,01,16,27,16.10
2015,10,01,16,28,16.10
2015,10,01,16,29,16.10
2015,10,01,16,31,16.10
2015,10,01,16,32,16.10
2015,10,01,16,33,15.90
2015,10,01,16,34,15.80
2015,10,01,16,36,15.70
2015,10,01,16,37,15.50
2015,10,01,16,38,15.40
2015,10,01,16,39,15.30
2015,10,01,16,41,15.20
2015,10,01,16,42,15.10
2015,10,01,16,43,15.10
2015,10,01,16,44,15.00
2015,10,01,16,46,14.90
2015,10,01,16,47,14.80
2015,10,01,16,48,14.80
2015,10,01,16,49,14.80
2015,10,01,16,51,14.80
2015,10,01,16,52,14.80
2015,10,01,16,53,14.80
2015,10,01,16,54,14.80
2015,10,01,16,56,14.80
2015,10,01,16,57,14.80
2015,10,01,16,58,14.80
2015,10,01,16,59,14.70
2015,10,01,17,01,14.70
2015,10,01,17,02,14.70
2015,10,01,17,03,14.70
2015,10,01,17,04,14.70
2015,10,01,17,06,14.80
2015,10,01,17,07,14.80
2015,10,01,17,08,14.80
2015,10,01,17,09,14.80
2015,10,01,17,11,14.80
2015,10,01,17,12,14.80
2015,10,01,17,13,14.90
2015,10,01,17,14,14.90
2015,10,01,17,16,15.00
2015,10,01,17,17,15.00
2015,10,01,17,18,15.00
2015,10,01,17,19,15.10
2015,10,01,17,21,15.10
2015,10,01,17,22,15.20
2015,10,01,17,23,15.20
2015,10,01,17,24,15.20
2015,10,01,17,26,15.30
2015,10,01,17,27,15.30
2015,10,01,17,28,15.30
2015,10,01,17,29,15.30
2015,10,01,17,31,15.30
2015,10,01,17,32,15.20
2015,10,01,17,33,15.20
2015,10,01,17,34,15.20
2015,10,01,17,36,15.10
2015,10,01,17,37,15.00
2015,10,01,17,38,15.00
2015,10,01,17,39,15.00
2015,10,01,17,41,14.90
2015,10,01,17,42,14.90
2015,10,01,17,43,14.90
2015,10,01,17,44,14.90
2015,10,01,17,45,14.80
2015,10,01,17,46,14.80
2015,10,01,17,47,14.80
2015,10,01,17,48,14.80
2015,10,01,17,49,14.80
2015,10,01,17,50,14.80
2015,10,01,17,51,14.80
2015,10,01,17,52,14.80
2015,10,01,17,53,14.70
2015,10,01,17,54,14.70
2015,10,01,17,55,14.60
2015,10,01,17,56,14.50
2015,10,01,17,57,14.40
2015,10,01,17,58,14.30
2015,10,01,17,59,14.30
2015,10,01,18,00,14.20
2015,10,01,18,01,14.20
2015,10,01,18,02,14.10
2015,10,01,18,03,14.00
2015,10,01,18,04,13.90
2015,10,01,18,05,13.90
2015,10,01,18,06,13.80
2015,10,01,18,07,13.70
2015,10,01,18,08,13.70
2015,10,01,18,09,13.60
2015,10,01,18,10,13.50
2015,10,01,18,11,13.50
2015,10,01,18,12,13.40
2015,10,01,18,14,13.30
2015,10,01,18,15,13.30
2015,10,01,18,16,13.30
2015,10,01,18,17,13.30
2015,10,01,18,18,13.30
2015,10,01,18,19,13.30
2015,10,01,18,20,13.30
2015,10,01,18,21,13.30
2015,10,01,18,22,13.30
2015,10,01,18,23,13.40
2015,10,01,18,24,13.40
2015,10,01,18,25,13.40
2015,10,01,18,27,13.40
2015,10,01,18,28,13.50
2015,10,01,18,29,13.50
2015,10,01,18,31,13.60
2015,10,01,18,32,13.60
2015,10,01,18,33,13.60
2015,10,01,18,34,13.60
2015,10,01,18,36,13.70
2015,10,01,18,37,13.70
2015,10,01,18,38,13.70
2015,10,01,18,39,13.70
2015,10,01,18,41,13.70
2015,10,01,18,42,13.70
2015,10,01,18,43,13.80
2015,10,01,18,44,14.00
2015,10,01,18,46,14.10
2015,10,01,18,47,14.10
2015,10,01,18,48,14.20
2015,10,01,18,49,14.20
2015,10,01,18,51,14.10
2015,10,01,18,52,14.10
2015,10,01,18,53,14.10
2015,10,01,18,54,14.10
2015,10,01,18,56,14.00
2015,10,01,18,57,14.00
2015,10,01,18,58,14.00
2015,10,01,18,59,13.90
2015,10,01,19,01,13.80
2015,10,01,19,02,13.70
2015,10,01,19,03,13.70
2015,10,01,19,04,13.70
2015,10,01,19,06,13.60
2015,10,01,19,07,13.60
2015,10,01,19,08,13.50
2015,10,01,19,09,13.40
2015,10,01,19,11,13.30
2015,10,01,19,12,13.20
2015,10,01,19,13,13.00
2015,10,01,19,14,12.80
2015,10,01,19,16,12.70
2015,10,01,19,17,12.50
2015,10,01,19,18,12.40
2015,10,01,19,19,12.40
2015,10,01,19,21,12.30
2015,10,01,19,22,12.30
2015,10,01,19,23,12.20
2015,10,01,19,24,12.10
2015,10,01,19,26,11.90
2015,10,01,19,27,11.90
2015,10,01,19,28,11.80
2015,10,01,19,29,11.80
2015,10,01,19,31,11.80
2015,10,01,19,32,11.70
2015,10,01,19,33,11.70
2015,10,01,19,34,11.60
2015,10,01,19,36,11.60
2015,10,01,19,37,11.60
2015,10,01,19,38,11.60
2015,10,01,19,39,11.60
2015,10,01,19,41,11.40
2015,10,01,19,42,11.40
2015,10,01,19,43,11.40
2015,10,01,19,44,11.40
2015,10,01,19,46,11.40
2015,10,01,19,47,11.40
2015,10,01,19,48,11.40
2015,10,01,19,49,11.40
2015,10,01,19,51,11.40
2015,10,01,19,52,11.40
2015,10,01,19,53,11.40
2015,10,01,19,54,11.40
2015,10,01,19,56,11.40
2015,10,01,19,57,11.40
2015,10,01,19,58,11.40
2015,10,01,19,59,11.40
2015,10,01,20,01,11.40
2015,10,01,20,02,11.40
2015,10,01,20,03,11.40
2015,10,01,20,04,11.40
2015,10,01,20,06,11.40
2015,10,01,20,07,11.40
2015,10,01,20,08,11.40
2015,10,01,20,09,11.40
2015,10,01,20,11,11.40
2015,10,01,20,12,11.40
2015,10,01,20,13,11.40
2015,10,01,20,14,11.40
2015,10,01,20,16,11.40
2015,10,01,20,17,11.40
2015,10,01,20,18,11.40
2015,10,01,20,19,11.40
2015,10,01,20,20,11.40
2015,10,01,20,21,11.40
2015,10,01,20,22,11.40
2015,10,01,20,23,11.40
2015,10,01,20,24,11.40
2015,10,01,20,25,11.40
2015,10,01,20,26,11.40
2015,10,01,20,27,11.40
2015,10,01,20,28,11.40
2015,10,01,20,29,11.40
2015,10,01,20,30,11.60
2015,10,01,20,31,11.60
2015,10,01,20,32,11.60
2015,10,01,20,33,11.60
2015,10,01,20,34,11.60
2015,10,01,20,35,11.60
2015,10,01,20,36,11.60
2015,10,01,20,37,11.60
2015,10,01,20,38,11.60